Weather History for Noatak, AK

Change the Weather History Date:

Tuesday, April 2, 2013

  Actual Average Record
Temperature  
Mean Temperature 14 °F -  
Max Temperature 24 °F 16 °F 35 °F (1998)
Min Temperature 5 °F 2 °F -22 °F (2001)
Degree Days  
Heating Degree Days 50    
Moisture  
Dew Point 4 °F    
Average Humidity 63    
Maximum Humidity 85    
Minimum Humidity 46    
Precipitation  
Precipitation 0.00 in - - ()
Sea Level Pressure  
Sea Level Pressure 30.27 in    
Wind  
Wind Speed 6 mph (NNE)    
Max Wind Speed 14 mph    
Max Gust Speed 21 mph    
Visibility 10 miles    
Events      
Averages and records for this station are not official NWS values.
T = Trace of Precipitation, MM = Missing Value Source: NWS Daily Summary

Daily Weather History Graph

Daily Weather History Graph

Search for Another Location

Airport:

Trip Planner

Search our weather history database for the weather conditions in past years. The results will help you decide how hot, cold, wet, or windy it might be!

Date:

Astronomy

Apr. 02, 2013 Rise Set
Actual Time 7:55 AM AKDT 9:57 PM AKDT
Civil Twilight 6:57 AM AKDT 10:56 PM AKDT
Nautical Twilight 5:36 AM AKDT 12:19 AM AKDT
Astronomical Twilight 3:27 AM AKDT 2:22 AM AKDT
Moon 6:27 AM AKDT (4/2) 10:47 AM AKDT (4/2)
Length of Visible Light 15h 59m
Length of Day
14h 01m
Waning Gibbous, 54% of the Moon is Illuminated
Apr 2
Waning Gibbous
Apr 2
Last Quarter
Apr 10
New
Apr 18
First Quarter
Apr 25
Full

Hourly Weather History & Observations

Time (AKDT) Temp. Windchill Dew Point Humidity Pressure Visibility Wind Dir Wind Speed Gust Speed Precip Events Conditions
12:16 AM 8.6 °F - 3.2 °F 79% 30.25 in 10.0 mi Calm Calm - N/A   Clear
12:36 AM 10.4 °F -0.4 °F 3.2 °F 73% 30.25 in 10.0 mi NNE 6.9 mph - N/A   Clear
12:56 AM 12.2 °F 1.7 °F 5.0 °F 73% 30.25 in 10.0 mi NNE 6.9 mph - N/A   Clear
1:16 AM 12.2 °F 1.7 °F 5.0 °F 73% 30.25 in 10.0 mi NNE 6.9 mph - N/A   Clear
1:36 AM 10.4 °F 0.8 °F 3.2 °F 73% 30.25 in 10.0 mi NNE 5.8 mph - N/A   Clear
1:56 AM 8.6 °F -1.3 °F 3.2 °F 79% 30.25 in 10.0 mi North 5.8 mph - N/A   Clear
2:16 AM 10.4 °F 2.2 °F 5.0 °F 79% 30.26 in 10.0 mi NNE 4.6 mph - N/A   Clear
2:36 AM 10.4 °F 2.2 °F 3.2 °F 73% 30.26 in 10.0 mi NNE 4.6 mph - N/A   Clear
2:56 AM 10.4 °F - 3.2 °F 73% 30.26 in 10.0 mi Calm Calm - N/A   Clear
3:16 AM 8.6 °F 0.1 °F 3.2 °F 79% 30.26 in 10.0 mi North 4.6 mph - N/A   Clear
3:36 AM 8.6 °F -1.3 °F 3.2 °F 79% 30.26 in 10.0 mi NNE 5.8 mph - N/A   Clear
3:56 AM 8.6 °F 2.0 °F 3.2 °F 79% 30.26 in 10.0 mi NNE 3.5 mph - N/A   Clear
4:16 AM 8.6 °F - 1.4 °F 73% 30.26 in 10.0 mi Calm Calm - N/A   Clear
4:36 AM 6.8 °F -2.0 °F 1.4 °F 79% 30.26 in 10.0 mi NNE 4.6 mph - N/A   Clear
4:56 AM 6.8 °F -0.1 °F 1.4 °F 79% 30.26 in 10.0 mi North 3.5 mph - N/A   Clear
5:16 AM 5.0 °F -4.1 °F 1.4 °F 85% 30.26 in 10.0 mi North 4.6 mph - N/A   Clear
5:36 AM 6.8 °F -5.9 °F -0.4 °F 72% 30.26 in 10.0 mi NNE 8.1 mph - N/A   Clear
5:56 AM 6.8 °F -6.9 °F 1.4 °F 79% 30.26 in 10.0 mi North 9.2 mph - N/A   Clear
6:36 AM 6.8 °F -2.0 °F 1.4 °F 79% 30.26 in 10.0 mi NNE 4.6 mph - N/A   Clear
6:56 AM 6.8 °F -4.8 °F 1.4 °F 79% 30.25 in 10.0 mi NNE 6.9 mph - N/A   Clear
7:16 AM 6.8 °F -2.0 °F 1.4 °F 79% 30.26 in 10.0 mi NNE 4.6 mph - N/A   Clear
7:36 AM 5.0 °F -4.1 °F -0.4 °F 78% 30.26 in 10.0 mi NE 4.6 mph - N/A   Clear
7:56 AM 6.8 °F -2.0 °F -0.4 °F 72% 30.26 in 10.0 mi NNE 4.6 mph - N/A   Clear
8:16 AM 5.0 °F - -0.4 °F 78% 30.26 in 10.0 mi Calm Calm - N/A   Clear
8:36 AM 6.8 °F -2.0 °F 1.4 °F 79% 30.26 in 10.0 mi NNE 4.6 mph - N/A   Clear
8:56 AM 6.8 °F -4.8 °F 1.4 °F 79% 30.26 in 10.0 mi NE 6.9 mph - N/A   Clear
9:16 AM 6.8 °F -3.5 °F -0.4 °F 72% 30.26 in 10.0 mi NE 5.8 mph - N/A   Clear
9:36 AM 6.8 °F -2.0 °F 1.4 °F 79% 30.26 in 10.0 mi NE 4.6 mph - N/A   Clear
9:56 AM 6.8 °F -3.5 °F -0.4 °F 72% 30.26 in 10.0 mi NE 5.8 mph - N/A   Clear
10:16 AM 8.6 °F 0.1 °F 1.4 °F 73% 30.26 in 10.0 mi NE 4.6 mph - N/A   Clear
10:36 AM 6.8 °F -4.8 °F 1.4 °F 79% 30.26 in 10.0 mi NNE 6.9 mph - N/A   Clear
10:56 AM 10.4 °F -0.4 °F 3.2 °F 73% 30.26 in 10.0 mi NNE 6.9 mph - N/A   Clear
11:16 AM 12.2 °F 1.7 °F 3.2 °F 67% 30.26 in 10.0 mi NE 6.9 mph - N/A   Clear
11:36 AM 12.2 °F 1.7 °F 3.2 °F 67% 30.27 in 10.0 mi NE 6.9 mph - N/A   Clear
11:56 AM 14.0 °F 2.0 °F 3.2 °F 62% 30.27 in 10.0 mi ENE 9.2 mph - N/A   Clear
12:16 PM 15.8 °F 6.1 °F 3.2 °F 58% 30.27 in 10.0 mi NE 6.9 mph - N/A   Clear
12:36 PM 17.6 °F 9.3 °F 6.8 °F 63% 30.27 in 10.0 mi NE 5.8 mph - N/A   Clear
12:56 PM 19.4 °F 8.6 °F 6.8 °F 58% 30.27 in 10.0 mi NE 9.2 mph - N/A   Clear
1:16 PM 19.4 °F 10.4 °F 8.6 °F 63% 30.27 in 10.0 mi NE 6.9 mph - N/A   Clear
1:36 PM 21.2 °F 10.9 °F 8.6 °F 58% 30.27 in 10.0 mi NE 9.2 mph - N/A   Clear
1:56 PM 21.2 °F 10.9 °F 8.6 °F 58% 30.27 in 10.0 mi NNE 9.2 mph - N/A   Clear
2:16 PM 21.2 °F 10.1 °F 8.6 °F 58% 30.27 in 10.0 mi NE 10.4 mph - N/A   Clear
2:36 PM 21.2 °F 8.9 °F 8.6 °F 58% 30.27 in 10.0 mi NE 12.7 mph - N/A   Clear
2:56 PM 21.2 °F 10.9 °F 8.6 °F 58% 30.27 in 10.0 mi NE 9.2 mph - N/A   Clear
3:16 PM 24.8 °F 16.1 °F 6.8 °F 46% 30.27 in 10.0 mi NE 8.1 mph 20.7 mph N/A   Clear
3:36 PM 24.8 °F 14.0 °F 6.8 °F 46% 30.27 in 10.0 mi NNE 11.5 mph - N/A   Clear
3:56 PM 24.8 °F 13.4 °F 6.8 °F 46% 30.27 in 10.0 mi NNE 12.7 mph 17.3 mph N/A   Clear
4:16 PM 24.8 °F 15.3 °F 6.8 °F 46% 30.27 in 10.0 mi NNE 9.2 mph - N/A   Clear
4:36 PM 24.8 °F 13.4 °F 6.8 °F 46% 30.27 in 10.0 mi NNE 12.7 mph 19.6 mph N/A   Clear
4:56 PM 24.8 °F 12.9 °F 6.8 °F 46% 30.27 in 10.0 mi NNE 13.8 mph 19.6 mph N/A   Clear
5:16 PM 24.8 °F 12.9 °F 6.8 °F 46% 30.28 in 10.0 mi NNE 13.8 mph 18.4 mph N/A   Clear
5:36 PM 24.8 °F 13.4 °F 6.8 °F 46% 30.28 in 10.0 mi NNE 12.7 mph 17.3 mph N/A   Clear
5:56 PM 24.8 °F 14.0 °F 6.8 °F 46% 30.28 in 10.0 mi NNE 11.5 mph - N/A   Clear
6:16 PM 24.8 °F 14.0 °F 6.8 °F 46% 30.27 in 10.0 mi NNE 11.5 mph - N/A   Clear
6:36 PM 24.8 °F 16.1 °F 6.8 °F 46% 30.28 in 10.0 mi NNE 8.1 mph - N/A   Clear
6:56 PM 24.8 °F 14.6 °F 8.6 °F 50% 30.28 in 10.0 mi NNE 10.4 mph - N/A   Clear
7:16 PM 24.8 °F 14.6 °F 6.8 °F 46% 30.28 in 10.0 mi NNE 10.4 mph - N/A   Clear
7:36 PM 23.0 °F 11.7 °F 6.8 °F 50% 30.28 in 10.0 mi NNE 11.5 mph - N/A   Clear
7:56 PM 23.0 °F 11.7 °F 6.8 °F 50% 30.29 in 10.0 mi NNE 11.5 mph - N/A   Clear
8:16 PM 21.2 °F 11.7 °F 5.0 °F 50% 30.29 in 10.0 mi NNE 8.1 mph - N/A   Clear
8:36 PM 21.2 °F 9.5 °F 5.0 °F 50% 30.29 in 10.0 mi NNE 11.5 mph - N/A   Clear
8:56 PM 19.4 °F 7.9 °F 5.0 °F 54% 30.30 in 10.0 mi NNE 10.4 mph - N/A   Clear
9:16 PM 19.4 °F 9.5 °F 3.2 °F 49% 30.30 in 10.0 mi NNE 8.1 mph - N/A   Clear
9:36 PM 17.6 °F 6.4 °F 3.2 °F 53% 30.31 in 10.0 mi NNE 9.2 mph - N/A   Clear
9:56 PM 17.6 °F 5.0 °F 3.2 °F 53% 30.31 in 10.0 mi NNE 11.5 mph - N/A   Clear
10:16 PM 15.8 °F 3.4 °F 1.4 °F 53% 30.32 in 10.0 mi NNE 10.4 mph - N/A   Clear
10:36 PM 15.8 °F 3.4 °F 1.4 °F 53% 30.32 in 10.0 mi NNE 10.4 mph - N/A   Clear
10:56 PM 15.8 °F 5.1 °F -0.4 °F 49% 30.34 in 10.0 mi NNE 8.1 mph - N/A   Clear
11:16 PM 15.8 °F 4.2 °F -0.4 °F 49% 30.34 in 10.0 mi NNE 9.2 mph - N/A   Clear
11:36 PM 14.0 °F -0.2 °F 1.4 °F 57% 30.35 in 10.0 mi North 12.7 mph - N/A   Scattered Clouds
11:56 PM 14.0 °F -0.2 °F 1.4 °F 57% 30.35 in 10.0 mi NNE 12.7 mph - N/A   Overcast